| time (UTC) | temp F | wind direction | speed MPH | gust MPH | rain 1hr in | rain 24hr in | rain mn in | humidity % | barometer mb |
| 20260505152626 | 40 | 16 | 7.0 | 9.0 | 0.02 | 0.35 | 0.35 | 82 | 1014.4 |
| 20260505152125 | 40 | 10 | 6.0 | 7.0 | 0.02 | 0.35 | 0.35 | 82 | 1014.3 |
| 20260505151125 | 40 | 11 | 6.0 | 7.0 | 0.02 | 0.35 | 0.35 | 82 | 1014.2 |
| 20260505150625 | 40 | 10 | 4.0 | 7.0 | 0.01 | 0.34 | 0.34 | 82 | 1014.2 |
| 20260505150125 | 39 | 10 | 5.0 | 6.0 | 0.01 | 0.34 | 0.34 | 82 | 1014.1 |
| 20260505140625 | 39 | 15 | 1.0 | 3.0 | 0.01 | 0.33 | 0.33 | 82 | 1014.3 |
| 20260505130126 | 38 | 14 | 2.0 | 3.0 | 0.03 | 0.32 | 0.32 | 82 | 1014.3 |
| 20260505124625 | 39 | 12 | 4.0 | 8.0 | 0.03 | 0.31 | 0.31 | 82 | 1014.3 |
| 20260505124128 | 38 | 10 | 5.0 | 7.0 | 0.04 | 0.31 | 0.31 | 82 | 1014.4 |
| 20260505123625 | 38 | 13 | 3.0 | 6.0 | 0.04 | 0.31 | 0.31 | 82 | 1014.3 |
| 20260505123126 | 38 | 10 | 4.0 | 6.0 | 0.04 | 0.31 | 0.31 | 82 | 1014.4 |
| 20260505122125 | 39 | 14 | 3.0 | 7.0 | 0.03 | 0.31 | 0.31 | 82 | 1014.4 |
| 20260505121626 | 39 | 13 | 3.0 | 6.0 | 0.04 | 0.31 | 0.31 | 82 | 1014.4 |
| 20260505121125 | 39 | 11 | 2.0 | 6.0 | 0.03 | 0.30 | 0.30 | 82 | 1014.4 |
| 20260505120625 | 39 | 13 | 3.0 | 6.0 | 0.03 | 0.30 | 0.30 | 82 | 1014.4 |
| 20260505120125 | 39 | 13 | 0.0 | 3.0 | 0.03 | 0.29 | 0.29 | 82 | 1014.4 |
| 20260505115625 | 40 | 13 | 1.0 | 3.0 | 0.03 | 0.28 | 0.28 | 82 | 1014.4 |
| 20260505115125 | 39 | 13 | 1.0 | 3.0 | 0.03 | 0.28 | 0.28 | 82 | 1014.5 |
| 20260505114125 | 39 | 12 | 1.0 | 3.0 | 0.04 | 0.28 | 0.28 | 82 | 1014.4 |
| 20260505112625 | 39 | 12 | 1.0 | 3.0 | 0.06 | 0.28 | 0.28 | 82 | 1014.5 |
| 20260505112125 | 39 | 14 | 1.0 | 3.0 | 0.06 | 0.28 | 0.28 | 82 | 1014.5 |
| 20260505111626 | 38 | 15 | 5.0 | 9.0 | 0.06 | 0.27 | 0.27 | 82 | 1014.5 |
| 20260505111125 | 37 | 12 | 5.0 | 10.0 | 0.06 | 0.27 | 0.27 | 82 | 1014.6 |
| 20260505110625 | 37 | 13 | 2.0 | 5.0 | 0.06 | 0.27 | 0.27 | 82 | 1014.6 |
| 20260505102125 | 36 | 14 | 5.0 | 7.0 | 0.07 | 0.22 | 0.22 | 82 | 1014.8 |
| 20260505101625 | 37 | 12 | 4.0 | 8.0 | 0.09 | 0.21 | 0.21 | 82 | 1014.7 |
| 20260505095625 | 37 | 11 | 5.0 | 12.0 | 0.11 | 0.20 | 0.20 | 82 | 1014.4 |
| 20260505095125 | 37 | 12 | 3.0 | 13.0 | 0.10 | 0.19 | 0.19 | 82 | 1014.4 |
| 20260505094625 | 37 | 10 | 9.0 | 14.0 | 0.09 | 0.17 | 0.17 | 82 | 1014.4 |
| 20260505094125 | 37 | 13 | 8.0 | 15.0 | 0.08 | 0.17 | 0.17 | 82 | 1014.4 |
| 20260505093625 | 37 | 12 | 10.0 | 14.0 | 0.08 | 0.17 | 0.17 | 82 | 1014.4 |
| 20260505092626 | 38 | 10 | 6.0 | 18.0 | 0.08 | 0.16 | 0.16 | 82 | 1014.2 |
| 20260505092125 | 38 | 12 | 5.0 | 14.0 | 0.07 | 0.15 | 0.15 | 82 | 1014.3 |
| 20260505091625 | 38 | 13 | 10.0 | 18.0 | 0.06 | 0.13 | 0.13 | 82 | 1014.2 |
| 20260505091125 | 38 | 10 | 10.0 | 22.0 | 0.08 | 0.11 | 0.11 | 82 | 1014.1 |
| 20260505090625 | 38 | 13 | 5.0 | 12.0 | 0.08 | 0.09 | 0.09 | 82 | 1014.0 |
| 20260505090125 | 38 | 13 | 7.0 | 14.0 | 0.07 | 0.09 | 0.09 | 82 | 1014.1 |
| 20260505085625 | 38 | 10 | 5.0 | 12.0 | 0.08 | 0.09 | 0.09 | 82 | 1014.2 |
| 20260505085124 | 37 | 12 | 7.0 | 15.0 | 0.09 | 0.09 | 0.09 | 82 | 1014.1 |
| 20260505084625 | 37 | 12 | 9.0 | 15.0 | 0.09 | 0.09 | 0.09 | 82 | 1014.1 |
| 20260505084125 | 37 | 10 | 7.0 | 12.0 | 0.09 | 0.09 | 0.09 | 82 | 1014.2 |
| 20260505083125 | 38 | 10 | 5.0 | 8.0 | 0.09 | 0.09 | 0.09 | 82 | 1014.2 |
| 20260505082625 | 39 | 10 | 5.0 | 10.0 | 0.08 | 0.08 | 0.08 | 82 | 1014.0 |
| 20260505082125 | 39 | 9 | 5.0 | 13.0 | 0.08 | 0.08 | 0.08 | 82 | 1014.1 |
| 20260505081624 | 39 | 13 | 6.0 | 14.0 | 0.06 | 0.06 | 0.06 | 82 | 1014.1 |
| 20260505081125 | 39 | 15 | 3.0 | 8.0 | 0.03 | 0.03 | 0.03 | 82 | 1014.0 |
| 20260505080624 | 39 | 10 | 6.0 | 10.0 | 0.02 | 0.02 | 0.02 | 82 | 1014.1 |
| 20260505080125 | 39 | 12 | 6.0 | 13.0 | 0.02 | 0.02 | 0.02 | 82 | 1014.1 |
| 20260505075624 | 39 | 13 | 3.0 | 9.0 | 0.01 | 0.01 | 0.01 | 82 | 1014.2 |
| 20260505074125 | 39 | 13 | 3.0 | 8.0 | 0.00 | 0.00 | 0.00 | 83 | 1014.4 |
| 20260505073625 | 39 | 13 | 2.0 | 7.0 | 0.00 | 0.00 | 0.00 | 84 | 1014.3 |
| 20260505072625 | 39 | 13 | 4.0 | 10.0 | 0.00 | 0.00 | 0.00 | 85 | 1014.3 |
| 20260505072125 | 39 | 13 | 3.0 | 8.0 | 0.00 | 0.00 | 0.00 | 86 | 1014.3 |
| 20260505071625 | 40 | 13 | 4.0 | 9.0 | 0.00 | 0.00 | 0.00 | 87 | 1014.3 |
| 20260505071125 | 40 | 13 | 3.0 | 6.0 | 0.00 | 0.00 | 0.00 | 88 | 1014.3 |
| 20260505070624 | 40 | 13 | 5.0 | 10.0 | 0.00 | 0.00 | 0.00 | 88 | 1014.3 |
| 20260505070125 | 40 | 11 | 3.0 | 6.0 | 0.00 | 0.00 | 0.00 | 88 | 1014.4 |
| 20260505065625 | 40 | 11 | 3.0 | 8.0 | 0.00 | 0.00 | 0.00 | 88 | 1014.3 |
| 20260505065125 | 40 | 11 | 5.0 | 8.0 | 0.00 | 0.00 | 0.00 | 88 | 1014.4 |
| 20260505064624 | 39 | 12 | 4.0 | 10.0 | 0.00 | 0.00 | 0.00 | 88 | 1014.3 |
| 20260505064124 | 39 | 11 | 3.0 | 6.0 | 0.00 | 0.00 | 0.00 | 86 | 1014.3 |
| 20260505063625 | 39 | 12 | 3.0 | 6.0 | 0.00 | 0.00 | 0.00 | 85 | 1014.3 |
| 20260505063125 | 39 | 11 | 2.0 | 7.0 | 0.00 | 0.00 | 0.00 | 86 | 1014.3 |
| 20260505062625 | 40 | 12 | 5.0 | 8.0 | 0.00 | 0.00 | 0.00 | 86 | 1014.2 |
| 20260505062125 | 40 | 12 | 3.0 | 7.0 | 0.00 | 0.00 | 0.00 | 86 | 1014.1 |
| 20260505061624 | 40 | 13 | 3.0 | 6.0 | 0.00 | 0.00 | 0.00 | 86 | 1014.1 |
| 20260505061124 | 40 | 12 | 5.0 | 8.0 | 0.00 | 0.00 | 0.00 | 86 | 1014.1 |
| 20260505060624 | 40 | 13 | 3.0 | 8.0 | 0.00 | 0.00 | 0.00 | 87 | 1014.0 |
| 20260505060125 | 41 | 13 | 3.0 | 6.0 | 0.00 | 0.00 | 0.00 | 87 | 1014.0 |
| 20260505055625 | 41 | 13 | 4.0 | 7.0 | 0.00 | 0.00 | 0.00 | 88 | 1014.0 |
| 20260505055125 | 42 | 13 | 2.0 | 5.0 | 0.00 | 0.00 | 0.00 | 88 | 1013.9 |
| 20260505054624 | 42 | 12 | 3.0 | 6.0 | 0.00 | 0.00 | 0.00 | 86 | 1013.9 |
| 20260505054125 | 42 | 12 | 3.0 | 6.0 | 0.00 | 0.00 | 0.00 | 85 | 1013.8 |
| 20260505053124 | 42 | 13 | 3.0 | 6.0 | 0.00 | 0.00 | 0.00 | 82 | 1013.8 |
| 20260505052624 | 42 | 12 | 4.0 | 7.0 | 0.00 | 0.00 | 0.00 | 81 | 1013.8 |
| 20260505052125 | 42 | 13 | 3.0 | 6.0 | 0.00 | 0.00 | 0.00 | 81 | 1013.9 |
| 20260505051625 | 42 | 12 | 3.0 | 6.0 | 0.00 | 0.00 | 0.00 | 79 | 1013.9 |
| 20260505051125 | 42 | 12 | 4.0 | 6.0 | 0.00 | 0.00 | 0.00 | 79 | 1013.9 |
| 20260505050625 | 42 | 12 | 5.0 | 7.0 | 0.00 | 0.00 | 0.00 | 78 | 1013.9 |
| 20260505050125 | 42 | 13 | 3.0 | 6.0 | 0.00 | 0.00 | 0.00 | 78 | 1014.0 |
| 20260505041625 | 42 | 15 | 4.0 | 6.0 | 0.00 | 0.00 | 0.00 | 75 | 1014.2 |
| 20260505041124 | 42 | 17 | 4.0 | 6.0 | 0.00 | 0.00 | 0.00 | 76 | 1014.1 |
| 20260505040625 | 42 | 17 | 3.0 | 5.0 | 0.00 | 0.00 | 0.00 | 75 | 1014.2 |
| 20260505035624 | 42 | 18 | 4.0 | 6.0 | 0.00 | 0.00 | 0.00 | 75 | 1014.3 |
| 20260505034625 | 42 | 17 | 3.0 | 5.0 | 0.00 | 0.00 | 0.00 | 77 | 1014.3 |
| 20260505033625 | 42 | 16 | 3.0 | 5.0 | 0.00 | 0.00 | 0.00 | 76 | 1014.4 |
| 20260505033124 | 42 | 17 | 3.0 | 5.0 | 0.00 | 0.00 | 0.00 | 76 | 1014.4 |
| 20260505032625 | 43 | 17 | 3.0 | 5.0 | 0.00 | 0.00 | 0.00 | 76 | 1014.5 |
| 20260505032124 | 43 | 17 | 5.0 | 6.0 | 0.00 | 0.00 | 0.00 | 76 | 1014.5 |
| 20260505031625 | 42 | 16 | 3.0 | 5.0 | 0.00 | 0.00 | 0.00 | 76 | 1014.6 |
| 20260505030624 | 42 | 16 | 4.0 | 5.0 | 0.00 | 0.00 | 0.00 | 75 | 1014.6 |
| 20260505025125 | 42 | 14 | 5.0 | 7.0 | 0.00 | 0.00 | 0.00 | 77 | 1014.7 |
| 20260505024624 | 42 | 16 | 4.0 | 6.0 | 0.00 | 0.00 | 0.00 | 78 | 1014.6 |
| 20260505024124 | 42 | 16 | 4.0 | 7.0 | 0.00 | 0.00 | 0.00 | 78 | 1014.8 |
| 20260505023625 | 42 | 16 | 5.0 | 8.0 | 0.00 | 0.00 | 0.00 | 81 | 1014.8 |
| 20260505022625 | 42 | 17 | 6.0 | 8.0 | 0.00 | 0.00 | 0.00 | 81 | 1014.9 |
| 20260505021624 | 42 | 17 | 5.0 | 7.0 | 0.00 | 0.00 | 0.00 | 80 | 1014.8 |
| 20260505021124 | 43 | 18 | 5.0 | 7.0 | 0.00 | 0.00 | 0.00 | 80 | 1014.9 |
| 20260505020625 | 43 | 17 | 5.0 | 8.0 | 0.00 | 0.00 | 0.00 | 79 | 1015.0 |
| 20260505015125 | 43 | 17 | 3.0 | 6.0 | 0.00 | 0.00 | 0.00 | 80 | 1015.1 |
| 20260505014624 | 43 | 17 | 5.0 | 7.0 | 0.00 | 0.00 | 0.00 | 79 | 1015.2 |
| 20260505014124 | 43 | 17 | 3.0 | 6.0 | 0.00 | 0.00 | 0.00 | 78 | 1015.3 |
| 20260505013624 | 42 | 19 | 3.0 | 5.0 | 0.00 | 0.00 | 0.00 | 75 | 1015.3 |
| 20260505013124 | 42 | 18 | 2.0 | 5.0 | 0.00 | 0.00 | 0.00 | 76 | 1015.3 |
| 20260505012625 | 43 | 17 | 2.0 | 3.0 | 0.00 | 0.00 | 0.00 | 77 | 1015.3 |
| 20260505012124 | 43 | 17 | 3.0 | 7.0 | 0.00 | 0.00 | 0.00 | 80 | 1015.4 |
| 20260505011624 | 42 | 18 | 4.0 | 6.0 | 0.00 | 0.00 | 0.00 | 81 | 1015.5 |
| 20260505011124 | 42 | 14 | 5.0 | 8.0 | 0.00 | 0.00 | 0.00 | 81 | 1015.5 |
| 20260505010625 | 42 | 17 | 5.0 | 7.0 | 0.00 | 0.00 | 0.00 | 81 | 1015.5 |
| 20260505010125 | 42 | 16 | 5.0 | 8.0 | 0.00 | 0.00 | 0.00 | 81 | 1015.6 |
| 20260505005625 | 42 | 17 | 5.0 | 8.0 | 0.00 | 0.00 | 0.00 | 81 | 1015.7 |
| 20260505005125 | 42 | 17 | 5.0 | 7.0 | 0.00 | 0.00 | 0.00 | 80 | 1015.7 |
| 20260505004124 | 42 | 18 | 5.0 | 7.0 | 0.00 | 0.00 | 0.00 | 81 | 1015.9 |
| 20260505003624 | 42 | 16 | 5.0 | 7.0 | 0.00 | 0.00 | 0.00 | 81 | 1015.9 |
| 20260505002625 | 42 | 18 | 4.0 | 7.0 | 0.00 | 0.00 | 0.00 | 81 | 1016.1 |
| 20260505002124 | 42 | 15 | 3.0 | 5.0 | 0.00 | 0.00 | 0.00 | 81 | 1016.1 |
| 20260505001625 | 42 | 18 | 3.0 | 6.0 | 0.00 | 0.00 | 0.00 | 82 | 1016.2 |
| 20260505000125 | 42 | 19 | 2.0 | 3.0 | 0.00 | 0.00 | 0.00 | 82 | 1016.3 |
| 20260504235625 | 42 | 15 | 2.0 | 5.0 | 0.00 | 0.00 | 0.00 | 82 | 1016.4 |
| 20260504235125 | 42 | 14 | 3.0 | 5.0 | 0.00 | 0.00 | 0.00 | 83 | 1016.4 |
| 20260504234125 | 42 | 9 | 2.0 | 5.0 | 0.00 | 0.00 | 0.00 | 83 | 1016.4 |
| 20260504233624 | 42 | 9 | 3.0 | 6.0 | 0.00 | 0.00 | 0.00 | 83 | 1016.5 |
| 20260504233124 | 42 | 17 | 2.0 | 3.0 | 0.00 | 0.00 | 0.00 | 83 | 1016.4 |
| 20260504232625 | 42 | 13 | 3.0 | 5.0 | 0.00 | 0.00 | 0.00 | 84 | 1016.5 |
| 20260504232124 | 42 | 14 | 3.0 | 5.0 | 0.00 | 0.00 | 0.00 | 84 | 1016.5 |
| 20260504231624 | 42 | 15 | 3.0 | 6.0 | 0.00 | 0.00 | 0.00 | 85 | 1016.5 |
| 20260504230624 | 42 | 11 | 5.0 | 8.0 | 0.00 | 0.00 | 0.00 | 85 | 1016.4 |
| 20260504225624 | 42 | 11 | 4.0 | 7.0 | 0.00 | 0.00 | 0.00 | 85 | 1016.5 |
| 20260504225124 | 42 | 15 | 3.0 | 6.0 | 0.00 | 0.00 | 0.00 | 85 | 1016.6 |
| 20260504224625 | 42 | 8 | 4.0 | 9.0 | 0.00 | 0.00 | 0.00 | 85 | 1016.7 |
| 20260504224124 | 42 | 15 | 4.0 | 7.0 | 0.00 | 0.00 | 0.00 | 85 | 1016.7 |
| 20260504223625 | 42 | 11 | 3.0 | 7.0 | 0.00 | 0.00 | 0.00 | 85 | 1016.8 |
| 20260504223124 | 42 | 8 | 4.0 | 8.0 | 0.00 | 0.00 | 0.00 | 86 | 1016.7 |
| 20260504222624 | 42 | 13 | 3.0 | 5.0 | 0.00 | 0.00 | 0.00 | 86 | 1016.8 |
| 20260504222124 | 42 | 10 | 3.0 | 6.0 | 0.00 | 0.00 | 0.00 | 86 | 1016.8 |
| 20260504221124 | 42 | 12 | 3.0 | 7.0 | 0.00 | 0.00 | 0.00 | 85 | 1016.9 |
| 20260504220624 | 42 | 13 | 3.0 | 7.0 | 0.00 | 0.00 | 0.00 | 85 | 1016.9 |
| 20260504220124 | 42 | 16 | 4.0 | 8.0 | 0.00 | 0.00 | 0.00 | 84 | 1017.0 |
| 20260504215624 | 43 | 18 | 5.0 | 8.0 | 0.00 | 0.00 | 0.00 | 84 | 1017.0 |
| 20260504215124 | 43 | 10 | 5.0 | 8.0 | 0.00 | 0.00 | 0.00 | 84 | 1017.1 |
| 20260504214625 | 43 | 15 | 5.0 | 8.0 | 0.00 | 0.00 | 0.00 | 84 | 1017.1 |
| 20260504213624 | 43 | 14 | 3.0 | 6.0 | 0.00 | 0.00 | 0.00 | 84 | 1017.1 |
| 20260504213124 | 43 | 17 | 5.0 | 7.0 | 0.00 | 0.00 | 0.00 | 84 | 1017.3 |
| 20260504212624 | 43 | 15 | 4.0 | 8.0 | 0.00 | 0.00 | 0.00 | 84 | 1017.2 |
| 20260504212124 | 43 | 12 | 5.0 | 8.0 | 0.00 | 0.00 | 0.00 | 84 | 1017.3 |
| 20260504211624 | 43 | 12 | 6.0 | 12.0 | 0.00 | 0.00 | 0.00 | 84 | 1017.4 |
| 20260504211125 | 43 | 13 | 5.0 | 12.0 | 0.00 | 0.00 | 0.00 | 84 | 1017.4 |
| 20260504210624 | 43 | 16 | 3.0 | 8.0 | 0.00 | 0.00 | 0.00 | 83 | 1017.5 |
| 20260504210124 | 43 | 14 | 5.0 | 7.0 | 0.00 | 0.00 | 0.00 | 83 | 1017.5 |
| 20260504205624 | 43 | 15 | 5.0 | 7.0 | 0.00 | 0.00 | 0.00 | 82 | 1017.6 |
| 20260504205124 | 43 | 16 | 5.0 | 7.0 | 0.00 | 0.00 | 0.00 | 82 | 1017.6 |
| 20260504204624 | 43 | 18 | 5.0 | 7.0 | 0.00 | 0.00 | 0.00 | 83 | 1017.6 |
| 20260504204124 | 43 | 14 | 5.0 | 7.0 | 0.00 | 0.00 | 0.00 | 84 | 1017.6 |
| 20260504203624 | 43 | 17 | 5.0 | 8.0 | 0.00 | 0.00 | 0.00 | 84 | 1017.5 |
| 20260504203124 | 43 | 15 | 7.0 | 10.0 | 0.00 | 0.00 | 0.00 | 84 | 1017.6 |
| 20260504202624 | 43 | 11 | 4.0 | 7.0 | 0.00 | 0.00 | 0.00 | 85 | 1017.6 |
| 20260504202124 | 43 | 17 | 3.0 | 6.0 | 0.00 | 0.00 | 0.00 | 86 | 1017.6 |
| 20260504201624 | 43 | 14 | 6.0 | 8.0 | 0.00 | 0.00 | 0.00 | 87 | 1017.7 |
| 20260504201124 | 43 | 8 | 3.0 | 7.0 | 0.00 | 0.00 | 0.00 | 88 | 1017.7 |
| 20260504200624 | 43 | 3 | 3.0 | 7.0 | 0.00 | 0.00 | 0.00 | 88 | 1017.7 |
| 20260504194624 | 43 | 16 | 6.0 | 8.0 | 0.00 | 0.00 | 0.00 | 87 | 1017.8 |
| 20260504194125 | 43 | 15 | 5.0 | 9.0 | 0.00 | 0.00 | 0.00 | 86 | 1017.8 |
| 20260504193124 | 43 | 15 | 5.0 | 8.0 | 0.00 | 0.00 | 0.00 | 84 | 1017.7 |
| 20260504192624 | 43 | 14 | 6.0 | 7.0 | 0.00 | 0.00 | 0.00 | 83 | 1017.7 |
| 20260504192124 | 44 | 16 | 6.0 | 8.0 | 0.00 | 0.00 | 0.00 | 82 | 1017.7 |
| 20260504191624 | 44 | 15 | 3.0 | 6.0 | 0.00 | 0.00 | 0.00 | 81 | 1017.7 |
| 20260504191124 | 44 | 15 | 3.0 | 7.0 | 0.00 | 0.00 | 0.00 | 81 | 1017.7 |
| 20260504190624 | 44 | 12 | 5.0 | 7.0 | 0.00 | 0.00 | 0.00 | 81 | 1017.6 |
| 20260504190124 | 44 | 14 | 6.0 | 8.0 | 0.00 | 0.00 | 0.00 | 81 | 1017.6 |
| 20260504185623 | 44 | 14 | 6.0 | 7.0 | 0.00 | 0.00 | 0.00 | 81 | 1017.7 |
| 20260504185124 | 44 | 15 | 6.0 | 8.0 | 0.00 | 0.00 | 0.00 | 81 | 1017.6 |
| 20260504184624 | 44 | 15 | 6.0 | 7.0 | 0.00 | 0.00 | 0.00 | 81 | 1017.6 |
| 20260504184124 | 44 | 15 | 5.0 | 8.0 | 0.00 | 0.00 | 0.00 | 81 | 1017.6 |
| 20260504183624 | 44 | 13 | 6.0 | 8.0 | 0.00 | 0.00 | 0.00 | 81 | 1017.6 |
| 20260504183124 | 44 | 16 | 5.0 | 8.0 | 0.00 | 0.00 | 0.00 | 81 | 1017.6 |
| 20260504182624 | 44 | 15 | 5.0 | 8.0 | 0.00 | 0.00 | 0.00 | 81 | 1017.6 |
| 20260504182124 | 44 | 13 | 7.0 | 9.0 | 0.00 | 0.00 | 0.00 | 81 | 1017.6 |
| 20260504181624 | 44 | 16 | 6.0 | 9.0 | 0.00 | 0.00 | 0.00 | 81 | 1017.6 |
| 20260504181124 | 44 | 15 | 6.0 | 8.0 | 0.00 | 0.00 | 0.00 | 81 | 1017.4 |
| 20260504180124 | 44 | 15 | 4.0 | 8.0 | 0.00 | 0.00 | 0.00 | 82 | 1017.4 |
| 20260504175624 | 45 | 14 | 5.0 | 8.0 | 0.00 | 0.00 | 0.00 | 82 | 1017.4 |
| 20260504175123 | 45 | 12 | 6.0 | 8.0 | 0.00 | 0.00 | 0.00 | 82 | 1017.3 |
| 20260504174624 | 45 | 16 | 5.0 | 12.0 | 0.00 | 0.00 | 0.00 | 83 | 1017.4 |
| 20260504174124 | 45 | 16 | 5.0 | 9.0 | 0.00 | 0.00 | 0.00 | 83 | 1017.3 |
| 20260504173623 | 45 | 0 | 1.0 | 6.0 | 0.00 | 0.00 | 0.00 | 84 | 1017.3 |
| 20260504173123 | 45 | 13 | 6.0 | 9.0 | 0.00 | 0.00 | 0.00 | 86 | 1017.3 |
| 20260504172624 | 46 | 14 | 2.0 | 5.0 | 0.00 | 0.00 | 0.00 | 88 | 1017.4 |
| 20260504171124 | 46 | 15 | 6.0 | 9.0 | 0.00 | 0.00 | 0.00 | 87 | 1017.5 |
| 20260504170624 | 47 | 14 | 3.0 | 5.0 | 0.00 | 0.00 | 0.00 | 87 | 1017.5 |
| 20260504170124 | 47 | 14 | 5.0 | 9.0 | 0.00 | 0.00 | 0.00 | 86 | 1017.5 |
| 20260504160124 | 48 | 13 | 7.0 | 12.0 | 0.00 | 0.00 | 0.00 | 75 | 1017.7 |